Time,TemperatureF,DewpointF,PressureIn,WindDirection,WindDirectionDegrees,WindSpeedMPH,WindSpeedGustMPH,Humidity,HourlyPrecipIn,Conditions,Clouds,dailyrainin,SoftwareType,DateUTC
2013-02-02 00:03:00,21.0,11.0,30.19,WNW,300,1.0,6.0,65,0.00,,,0.00,,2013-02-02 05:03:00,
2013-02-02 00:12:00,21.0,11.0,30.19,WNW,300,1.0,6.0,65,0.00,,,0.00,,2013-02-02 05:12:00,
2013-02-02 00:22:00,21.0,11.0,30.19,WNW,299,0.0,3.0,66,0.00,,,0.00,,2013-02-02 05:22:00,
2013-02-02 00:33:00,21.0,12.0,30.20,WNW,297,1.0,3.0,67,0.00,,,0.00,,2013-02-02 05:33:00,
2013-02-02 00:42:00,21.0,12.0,30.20,WNW,297,1.0,3.0,67,0.00,,,0.00,,2013-02-02 05:42:00,
2013-02-02 00:52:00,21.0,12.0,30.19,WNW,297,1.0,3.0,68,0.00,,,0.00,,2013-02-02 05:52:00,
2013-02-02 01:02:00,20.0,11.0,30.19,NW,307,2.0,6.0,69,0.00,,,0.00,,2013-02-02 06:02:00,
2013-02-02 01:12:00,20.0,11.0,30.19,NW,307,2.0,6.0,69,0.00,,,0.00,,2013-02-02 06:12:00,
2013-02-02 01:22:00,20.0,12.0,30.19,WNW,301,2.0,5.0,70,0.00,,,0.00,,2013-02-02 06:22:00,
2013-02-02 01:32:00,20.0,12.0,30.20,NW,311,1.0,6.0,70,0.00,,,0.00,,2013-02-02 06:32:00,
2013-02-02 01:42:00,20.0,12.0,30.20,NW,311,1.0,6.0,70,0.00,,,0.00,,2013-02-02 06:42:00,
2013-02-02 01:51:00,20.0,11.0,30.20,NW,326,1.0,5.0,69,0.00,,,0.00,,2013-02-02 06:51:00,
2013-02-02 02:02:00,20.0,11.0,30.20,NW,319,1.0,3.0,69,0.00,,,0.00,,2013-02-02 07:02:00,
2013-02-02 02:12:00,20.0,11.0,30.20,NW,319,1.0,3.0,69,0.00,,,0.00,,2013-02-02 07:12:00,
2013-02-02 02:21:00,20.0,11.0,30.20,NW,319,1.0,3.0,69,0.00,,,0.00,,2013-02-02 07:21:00,
2013-02-02 02:32:00,19.0,11.0,30.22,NW,320,0.0,1.0,70,0.00,,,0.00,,2013-02-02 07:32:00,
2013-02-02 02:42:00,19.0,11.0,30.22,NW,320,0.0,1.0,70,0.00,,,0.00,,2013-02-02 07:42:00,
2013-02-02 02:52:00,19.0,11.0,30.23,NW,320,0.0,2.0,71,0.00,,,0.00,,2013-02-02 07:52:00,
2013-02-02 03:01:00,19.0,11.0,30.23,West,262,0.0,3.0,72,0.00,,,0.00,,2013-02-02 08:01:00,
2013-02-02 03:11:00,19.0,11.0,30.23,West,262,0.0,3.0,72,0.00,,,0.00,,2013-02-02 08:11:00,
2013-02-02 03:21:00,19.0,11.0,30.22,WNW,297,3.0,5.0,72,0.00,,,0.00,,2013-02-02 08:21:00,
2013-02-02 03:32:00,19.0,11.0,30.22,NNW,327,0.0,2.0,72,0.00,,,0.00,,2013-02-02 08:32:00,
2013-02-02 03:41:00,19.0,11.0,30.22,NNW,327,0.0,2.0,72,0.00,,,0.00,,2013-02-02 08:41:00,
2013-02-02 03:52:00,19.0,11.0,30.22,NNW,327,0.0,2.0,72,0.00,,,0.00,,2013-02-02 08:52:00,
2013-02-02 04:01:00,19.0,12.0,30.23,NNW,327,0.0,1.0,75,0.00,,,0.00,,2013-02-02 09:01:00,
2013-02-02 04:11:00,19.0,12.0,30.23,NNW,327,0.0,1.0,75,0.00,,,0.00,,2013-02-02 09:11:00,
2013-02-02 04:22:00,19.0,12.0,30.23,NNW,327,0.0,1.0,75,0.00,,,0.00,,2013-02-02 09:22:00,
2013-02-02 04:32:00,18.0,12.0,30.24,NNW,327,0.0,1.0,76,0.00,,,0.00,,2013-02-02 09:32:00,
2013-02-02 04:42:00,18.0,12.0,30.24,NNW,327,0.0,1.0,76,0.00,,,0.00,,2013-02-02 09:42:00,
2013-02-02 04:52:00,18.0,12.0,30.24,NNW,327,0.0,0.0,77,0.00,,,0.00,,2013-02-02 09:52:00,
2013-02-02 05:02:00,18.0,12.0,30.24,NNW,327,0.0,1.0,76,0.00,,,0.00,,2013-02-02 10:02:00,
2013-02-02 05:11:00,18.0,12.0,30.24,NNW,327,0.0,1.0,76,0.00,,,0.00,,2013-02-02 10:11:00,
2013-02-02 05:21:00,18.0,12.0,30.24,NW,319,1.0,2.0,76,0.00,,,0.00,,2013-02-02 10:21:00,
2013-02-02 05:32:00,18.0,11.0,30.24,WSW,239,2.0,5.0,72,0.00,,,0.00,,2013-02-02 10:32:00,
2013-02-02 05:42:00,18.0,11.0,30.24,WSW,239,2.0,5.0,72,0.00,,,0.00,,2013-02-02 10:42:00,
2013-02-02 05:52:00,18.0,11.0,30.24,SW,231,0.0,2.0,72,0.00,,,0.00,,2013-02-02 10:52:00,
2013-02-02 06:02:00,18.0,11.0,30.24,SW,231,0.0,2.0,72,0.00,,,0.00,,2013-02-02 11:02:00,
2013-02-02 06:11:00,18.0,11.0,30.24,SW,231,0.0,2.0,72,0.00,,,0.00,,2013-02-02 11:11:00,
2013-02-02 06:22:00,18.0,10.0,30.24,NW,306,1.0,3.0,71,0.00,,,0.00,,2013-02-02 11:22:00,
2013-02-02 06:32:00,18.0,10.0,30.24,West,261,1.0,5.0,70,0.00,,,0.00,,2013-02-02 11:32:00,
2013-02-02 06:42:00,18.0,10.0,30.24,West,261,1.0,5.0,70,0.00,,,0.00,,2013-02-02 11:42:00,
2013-02-02 06:52:00,17.0,9.0,30.24,NNW,338,2.0,7.0,70,0.00,,,0.00,,2013-02-02 11:52:00,
2013-02-02 07:02:00,17.0,9.0,30.25,SW,232,2.0,6.0,69,0.00,,,0.00,,2013-02-02 12:02:00,
2013-02-02 07:11:00,17.0,9.0,30.25,SW,232,2.0,6.0,69,0.00,,,0.00,,2013-02-02 12:11:00,
2013-02-02 07:22:00,17.0,9.0,30.25,NW,322,1.0,5.0,69,0.00,,,0.00,,2013-02-02 12:22:00,
2013-02-02 07:32:00,17.0,10.0,30.26,NW,305,1.0,3.0,72,0.00,,,0.00,,2013-02-02 12:32:00,
2013-02-02 07:42:00,17.0,10.0,30.26,NW,305,1.0,3.0,72,0.00,,,0.00,,2013-02-02 12:42:00,
2013-02-02 07:52:00,17.0,10.0,30.26,NW,317,0.0,3.0,73,0.00,,,0.00,,2013-02-02 12:52:00,
2013-02-02 08:03:00,17.0,10.0,30.26,West,260,1.0,3.0,73,0.00,,,0.00,,2013-02-02 13:03:00,
2013-02-02 08:11:00,17.0,10.0,30.26,West,260,1.0,3.0,73,0.00,,,0.00,,2013-02-02 13:11:00,
2013-02-02 08:22:00,17.0,10.0,30.26,West,260,1.0,3.0,73,0.00,,,0.00,,2013-02-02 13:22:00,
2013-02-02 08:33:00,17.0,10.0,30.26,West,260,1.0,3.0,73,0.00,,,0.00,,2013-02-02 13:33:00,
2013-02-02 08:42:00,17.0,10.0,30.26,West,260,1.0,3.0,73,0.00,,,0.00,,2013-02-02 13:42:00,
2013-02-02 08:52:00,18.0,10.0,30.26,WSW,239,2.0,5.0,71,0.00,,,0.00,,2013-02-02 13:52:00,
2013-02-02 09:03:00,19.0,11.0,30.27,WSW,254,2.0,6.0,69,0.00,,,0.00,,2013-02-02 14:03:00,
2013-02-02 09:12:00,19.0,11.0,30.27,WSW,254,2.0,6.0,69,0.00,,,0.00,,2013-02-02 14:12:00,
2013-02-02 09:22:00,19.0,10.0,30.27,WSW,239,2.0,7.0,68,0.00,,,0.00,,2013-02-02 14:22:00,
2013-02-02 09:33:00,20.0,11.0,30.27,SW,229,2.0,7.0,66,0.00,,,0.00,,2013-02-02 14:33:00,
2013-02-02 09:42:00,20.0,11.0,30.27,SW,229,2.0,7.0,66,0.00,,,0.00,,2013-02-02 14:42:00,
2013-02-02 09:52:00,22.0,11.0,30.26,South,183,5.0,6.0,63,0.00,,,0.00,,2013-02-02 14:52:00,
2013-02-02 10:03:00,23.0,11.0,30.25,WNW,297,3.0,6.0,60,0.00,,,0.00,,2013-02-02 15:03:00,
2013-02-02 10:12:00,23.0,11.0,30.25,WNW,297,3.0,6.0,60,0.00,,,0.00,,2013-02-02 15:12:00,
2013-02-02 10:22:00,23.0,11.0,30.25,WNW,297,3.0,6.0,60,0.00,,,0.00,,2013-02-02 15:22:00,
2013-02-02 10:33:00,23.0,11.0,30.25,WNW,297,3.0,6.0,60,0.00,,,0.00,,2013-02-02 15:33:00,
2013-02-02 10:42:00,23.0,11.0,30.25,WNW,297,3.0,6.0,60,0.00,,,0.00,,2013-02-02 15:42:00,
2013-02-02 11:03:00,26.0,12.0,30.22,SE,135,0.0,0.0,56,0.00,,,0.00,,2013-02-02 16:03:00,
2013-02-02 11:12:00,26.0,12.0,30.22,SE,135,0.0,0.0,56,0.00,,,0.00,,2013-02-02 16:12:00,
2013-02-02 11:23:00,26.0,12.0,30.22,ENE,58,0.0,1.0,54,0.00,,,0.00,,2013-02-02 16:23:00,
2013-02-02 11:32:00,26.0,12.0,30.21,SSW,197,0.0,6.0,55,0.00,,,0.00,,2013-02-02 16:32:00,
2013-02-02 11:42:00,26.0,12.0,30.21,SSW,197,0.0,6.0,55,0.00,,,0.00,,2013-02-02 16:42:00,
2013-02-02 11:52:00,26.0,12.0,30.21,SSW,197,0.0,6.0,55,0.00,,,0.00,,2013-02-02 16:52:00,
2013-02-02 12:03:00,27.0,11.0,30.19,West,265,1.0,5.0,51,0.00,,,0.00,,2013-02-02 17:03:00,
2013-02-02 12:11:00,27.0,11.0,30.19,West,265,1.0,5.0,51,0.00,,,0.00,,2013-02-02 17:11:00,
2013-02-02 12:23:00,27.0,11.0,30.19,West,265,1.0,5.0,51,0.00,,,0.00,,2013-02-02 17:23:00,
2013-02-02 12:32:00,29.0,11.0,30.16,SW,220,7.0,16.0,47,0.00,,,0.00,,2013-02-02 17:32:00,
2013-02-02 12:42:00,29.0,11.0,30.16,SW,220,7.0,16.0,47,0.00,,,0.00,,2013-02-02 17:42:00,
2013-02-02 12:53:00,29.0,11.0,30.15,SW,223,5.0,14.0,47,0.00,,,0.00,,2013-02-02 17:53:00,
2013-02-02 13:03:00,30.0,11.0,30.14,West,274,6.0,12.0,45,0.00,,,0.00,,2013-02-02 18:03:00,
2013-02-02 13:12:00,30.0,11.0,30.14,West,274,6.0,12.0,45,0.00,,,0.00,,2013-02-02 18:12:00,
2013-02-02 13:22:00,29.0,10.0,30.12,SW,229,9.0,16.0,45,0.00,,,0.00,,2013-02-02 18:22:00,
2013-02-02 13:32:00,30.0,11.0,30.12,West,277,6.0,20.0,45,0.00,,,0.00,,2013-02-02 18:32:00,
2013-02-02 13:42:00,30.0,11.0,30.12,West,277,6.0,20.0,45,0.00,,,0.00,,2013-02-02 18:42:00,
2013-02-02 13:52:00,30.0,11.0,30.12,West,277,6.0,20.0,45,0.00,,,0.00,,2013-02-02 18:52:00,
2013-02-02 14:02:00,30.0,9.0,30.11,West,273,4.0,16.0,41,0.00,,,0.00,,2013-02-02 19:02:00,
2013-02-02 14:12:00,30.0,9.0,30.11,West,273,4.0,16.0,41,0.00,,,0.00,,2013-02-02 19:12:00,
2013-02-02 14:22:00,30.0,9.0,30.11,West,262,3.0,16.0,41,0.00,,,0.00,,2013-02-02 19:22:00,
2013-02-02 14:32:00,30.0,10.0,30.10,NW,316,6.0,17.0,42,0.00,,,0.00,,2013-02-02 19:32:00,
2013-02-02 14:42:00,30.0,10.0,30.10,NW,316,6.0,17.0,42,0.00,,,0.00,,2013-02-02 19:42:00,
2013-02-02 14:51:00,29.0,9.0,30.10,NW,306,7.0,15.0,43,0.00,,,0.00,,2013-02-02 19:51:00,
2013-02-02 15:02:00,28.0,8.0,30.09,West,269,7.0,18.0,43,0.00,,,0.00,,2013-02-02 20:02:00,
2013-02-02 15:11:00,28.0,8.0,30.09,West,269,7.0,18.0,43,0.00,,,0.00,,2013-02-02 20:11:00,
2013-02-02 15:22:00,28.0,9.0,30.09,WSW,257,6.0,15.0,44,0.00,,,0.00,,2013-02-02 20:22:00,
2013-02-02 15:32:00,27.0,9.0,30.09,WSW,243,9.0,16.0,46,0.00,,,0.00,,2013-02-02 20:32:00,
2013-02-02 15:42:00,27.0,9.0,30.09,WSW,243,9.0,16.0,46,0.00,,,0.00,,2013-02-02 20:42:00,
2013-02-02 15:52:00,27.0,9.0,30.09,WSW,243,7.0,16.0,47,0.00,,,0.00,,2013-02-02 20:52:00,
2013-02-02 16:02:00,27.0,10.0,30.09,WSW,247,5.0,16.0,48,0.00,,,0.00,,2013-02-02 21:02:00,
2013-02-02 16:11:00,27.0,10.0,30.09,WSW,247,5.0,16.0,48,0.00,,,0.00,,2013-02-02 21:11:00,
2013-02-02 16:21:00,26.0,10.0,30.09,WSW,246,6.0,18.0,50,0.00,,,0.00,,2013-02-02 21:21:00,
2013-02-02 16:32:00,26.0,11.0,30.09,WSW,252,9.0,17.0,52,0.00,,,0.00,,2013-02-02 21:32:00,
2013-02-02 16:42:00,26.0,11.0,30.09,WSW,252,9.0,17.0,52,0.00,,,0.00,,2013-02-02 21:42:00,
2013-02-02 16:52:00,25.0,12.0,30.09,SSW,203,8.0,18.0,56,0.00,,,0.00,,2013-02-02 21:52:00,
2013-02-02 17:03:00,25.0,12.0,30.09,WNW,287,6.0,14.0,57,0.00,,,0.00,,2013-02-02 22:03:00,
2013-02-02 17:12:00,25.0,12.0,30.09,WNW,287,6.0,14.0,57,0.00,,,0.00,,2013-02-02 22:12:00,
2013-02-02 17:21:00,25.0,12.0,30.09,WNW,287,6.0,14.0,57,0.00,,,0.00,,2013-02-02 22:21:00,
2013-02-02 17:32:00,24.0,13.0,30.09,West,268,4.0,15.0,61,0.00,,,0.00,,2013-02-02 22:32:00,
2013-02-02 17:42:00,24.0,13.0,30.09,West,268,4.0,15.0,61,0.00,,,0.00,,2013-02-02 22:42:00,
2013-02-02 17:52:00,24.0,13.0,30.09,West,268,4.0,15.0,61,0.00,,,0.00,,2013-02-02 22:52:00,
2013-02-02 18:02:00,24.0,14.0,30.09,West,259,6.0,14.0,65,0.00,,,0.00,,2013-02-02 23:02:00,
2013-02-02 18:11:00,24.0,14.0,30.09,West,259,6.0,14.0,65,0.00,,,0.00,,2013-02-02 23:11:00,
2013-02-02 18:22:00,24.0,14.0,30.09,West,259,6.0,14.0,65,0.00,,,0.00,,2013-02-02 23:22:00,
2013-02-02 18:32:00,23.0,16.0,30.09,WNW,293,3.0,10.0,74,0.00,,,0.00,,2013-02-02 23:32:00,
2013-02-02 18:42:00,23.0,16.0,30.09,WNW,293,3.0,10.0,74,0.00,,,0.00,,2013-02-02 23:42:00,
2013-02-02 18:52:00,22.0,16.0,30.09,West,260,6.0,10.0,77,0.00,,,0.00,,2013-02-02 23:52:00,
2013-02-02 19:02:00,22.0,16.0,30.09,WNW,286,2.0,8.0,79,0.00,,,0.00,,2013-02-03 00:02:00,
2013-02-02 19:11:00,22.0,16.0,30.09,WNW,286,2.0,8.0,79,0.00,,,0.00,,2013-02-03 00:11:00,
2013-02-02 19:22:00,22.0,16.0,30.09,WNW,286,2.0,8.0,79,0.00,,,0.00,,2013-02-03 00:22:00,
2013-02-02 19:32:00,21.0,16.0,30.09,West,278,0.0,3.0,81,0.00,,,0.00,,2013-02-03 00:32:00,
2013-02-02 19:42:00,21.0,16.0,30.09,West,278,0.0,3.0,81,0.00,,,0.00,,2013-02-03 00:42:00,
2013-02-02 19:52:00,21.0,16.0,30.09,WSW,256,1.0,6.0,81,0.00,,,0.00,,2013-02-03 00:52:00,
2013-02-02 20:02:00,22.0,17.0,30.09,WSW,248,3.0,6.0,81,0.00,,,0.00,,2013-02-03 01:02:00,
2013-02-02 20:11:00,22.0,17.0,30.09,West,263,2.0,5.0,81,0.00,,,0.00,,2013-02-03 01:11:00,
2013-02-02 20:21:00,22.0,17.0,30.09,West,263,2.0,5.0,81,0.00,,,0.00,,2013-02-03 01:21:00,
2013-02-02 20:32:00,22.0,17.0,30.09,WSW,249,1.0,6.0,81,0.00,,,0.00,,2013-02-03 01:32:00,
2013-02-02 20:42:00,22.0,17.0,30.09,WSW,249,1.0,6.0,81,0.00,,,0.00,,2013-02-03 01:42:00,
2013-02-02 20:52:00,21.0,16.0,30.09,WSW,254,0.0,5.0,81,0.00,,,0.00,,2013-02-03 01:52:00,
2013-02-02 21:01:00,21.0,16.0,30.09,WNW,285,1.0,7.0,81,0.00,,,0.00,,2013-02-03 02:01:00,
2013-02-02 21:11:00,21.0,16.0,30.09,WNW,285,1.0,7.0,81,0.00,,,0.00,,2013-02-03 02:11:00,
2013-02-02 21:21:00,21.0,16.0,30.09,WNW,285,1.0,7.0,81,0.00,,,0.00,,2013-02-03 02:21:00,
2013-02-02 21:32:00,22.0,17.0,30.09,WNW,287,2.0,3.0,81,0.00,,,0.00,,2013-02-03 02:32:00,
2013-02-02 21:42:00,22.0,17.0,30.09,WNW,287,2.0,3.0,81,0.00,,,0.00,,2013-02-03 02:42:00,
2013-02-02 21:52:00,22.0,17.0,30.09,WNW,287,2.0,3.0,81,0.00,,,0.00,,2013-02-03 02:52:00,
2013-02-02 22:02:00,21.0,16.0,30.09,WNW,287,1.0,3.0,81,0.00,,,0.00,,2013-02-03 03:02:00,
2013-02-02 22:11:00,21.0,16.0,30.08,WNW,288,1.0,3.0,81,0.00,,,0.00,,2013-02-03 03:11:00,
2013-02-02 22:22:00,21.0,16.0,30.08,WNW,288,1.0,3.0,81,0.00,,,0.00,,2013-02-03 03:22:00,
2013-02-02 22:32:00,21.0,16.0,30.08,WSW,256,1.0,3.0,81,0.00,,,0.00,,2013-02-03 03:32:00,
2013-02-02 22:42:00,21.0,16.0,30.08,WSW,256,1.0,3.0,81,0.00,,,0.00,,2013-02-03 03:42:00,
2013-02-02 22:51:00,21.0,16.0,30.08,WSW,256,1.0,3.0,81,0.00,,,0.00,,2013-02-03 03:51:00,
2013-02-02 23:01:00,21.0,16.0,30.07,WSW,257,1.0,3.0,81,0.00,,,0.00,,2013-02-03 04:01:00,
2013-02-02 23:11:00,21.0,16.0,30.07,WSW,257,1.0,3.0,81,0.00,,,0.00,,2013-02-03 04:11:00,
2013-02-02 23:21:00,21.0,16.0,30.07,WSW,257,0.0,1.0,81,0.00,,,0.00,,2013-02-03 04:21:00,
2013-02-02 23:32:00,21.0,16.0,30.07,WSW,256,0.0,0.0,81,0.00,,,0.00,,2013-02-03 04:32:00,
2013-02-02 23:42:00,21.0,16.0,30.07,WSW,256,0.0,0.0,81,0.00,,,0.00,,2013-02-03 04:42:00,
2013-02-02 23:52:00,21.0,16.0,30.07,WSW,256,0.0,0.0,81,0.00,,,0.00,,2013-02-03 04:52:00,